When you browse on this site, cookies collect data to enhance your experience and personalize the content and advertising you see.
Visit our Privacy Policy to learn more. By continuing to use the site, you agree to this use of cookies and data.

Tiempo cada hora Vladimirec

Hoy, 11 Julio, Sábado

Tiempo Temperatura Precipitaciones Viento Presión Humedad
00:00 +21°C° 0 mm 4 mps 744 mmHg 90%
01:00 +20°C° 0 mm 4 mps 744 mmHg 89%
02:00 +20°C° 0 mm 3 mps 745 mmHg 91%
03:00 +19°C° 0 mm 3 mps 745 mmHg 91%
04:00 +19°C° 0 mm 3 mps 745 mmHg 92%
05:00 +19°C° 0 mm 3 mps 745 mmHg 92%
06:00 +20°C° 0 mm 3 mps 745 mmHg 88%
07:00 +22°C° 0 mm 3 mps 745 mmHg 83%
08:00 +24°C° 0 mm 3 mps 746 mmHg 79%
09:00 +26°C° 0 mm 2 mps 746 mmHg 74%
10:00 +27°C° 0 mm 1 mps 746 mmHg 69%
11:00 +29°C° 0 mm 1 mps 746 mmHg 64%
12:00 +28°C° 0.9 mm 1 mps 746 mmHg 66%
13:00 +28°C° 0.9 mm 2 mps 746 mmHg 68%
14:00 +28°C° 0.9 mm 2 mps 746 mmHg 71%
15:00 +26°C° 2.5 mm 3 mps 746 mmHg 77%
16:00 +25°C° 2.5 mm 3 mps 746 mmHg 84%
17:00 +22°C° 2.5 mm 4 mps 745 mmHg 90%
18:00 +22°C° 0.8 mm 4 mps 745 mmHg 92%
19:00 +21°C° 0.8 mm 3 mps 746 mmHg 93%
20:00 +20°C° 0.8 mm 3 mps 746 mmHg 94%
21:00 +19°C° 1.4 mm 4 mps 746 mmHg 94%
22:00 +17°C° 1.4 mm 5 mps 746 mmHg 94%
23:00 +16°C° 1.4 mm 5 mps 746 mmHg 94%

Mañana, 12 Julio, Domingo

Tiempo Temperatura Precipitaciones Viento Presión Humedad
00:00 +15°C° 0.8 mm 6 mps 746 mmHg 95%
01:00 +14°C° 0.8 mm 6 mps 746 mmHg 95%
02:00 +13°C° 0.8 mm 6 mps 746 mmHg 95%
03:00 +13°C° 0.3 mm 6 mps 746 mmHg 95%
04:00 +13°C° 0.3 mm 6 mps 746 mmHg 95%
05:00 +12°C° 0.3 mm 5 mps 746 mmHg 95%
06:00 +11°C° 0.4 mm 6 mps 746 mmHg 95%
07:00 +11°C° 0.4 mm 6 mps 746 mmHg 95%
08:00 +11°C° 0.4 mm 6 mps 746 mmHg 95%
09:00 +11°C° 0.4 mm 6 mps 747 mmHg 94%
10:00 +10°C° 0.4 mm 6 mps 747 mmHg 93%
11:00 +10°C° 0.4 mm 6 mps 747 mmHg 92%
12:00 +10°C° 1.4 mm 6 mps 748 mmHg 93%
13:00 +9°C° 1.4 mm 5 mps 748 mmHg 94%
14:00 +9°C° 1.4 mm 5 mps 748 mmHg 94%
15:00 +10°C° 0.4 mm 5 mps 748 mmHg 92%
16:00 +12°C° 0.4 mm 4 mps 748 mmHg 89%
17:00 +13°C° 0.4 mm 4 mps 748 mmHg 86%
18:00 +12°C° 0 mm 3 mps 748 mmHg 87%
19:00 +13°C° 0 mm 2 mps 748 mmHg 88%
20:00 +13°C° 0 mm 1 mps 748 mmHg 89%
21:00 +12°C° 0 mm 1 mps 748 mmHg 90%
22:00 +12°C° 0 mm 1 mps 748 mmHg 91%
23:00 +10°C° 0 mm 2 mps 748 mmHg 92%

Pasado mañana, 13 Julio, Lunes

Tiempo Temperatura Precipitaciones Viento Presión Humedad
00:00 +10°C° 0 mm 2 mps 748 mmHg 93%
01:00 +10°C° 0 mm 2 mps 748 mmHg 94%
02:00 +10°C° 0 mm 3 mps 748 mmHg 95%
03:00 +10°C° 0 mm 3 mps 748 mmHg 96%
04:00 +9°C° 0 mm 3 mps 748 mmHg 96%
05:00 +9°C° 0 mm 3 mps 748 mmHg 96%
06:00 +11°C° 0 mm 3 mps 748 mmHg 88%
07:00 +12°C° 0 mm 4 mps 748 mmHg 81%
08:00 +14°C° 0 mm 4 mps 748 mmHg 74%
09:00 +15°C° 0 mm 4 mps 748 mmHg 70%
10:00 +16°C° 0 mm 5 mps 748 mmHg 67%
11:00 +17°C° 0 mm 5 mps 748 mmHg 63%
12:00 +17°C° 0.1 mm 5 mps 747 mmHg 64%
13:00 +18°C° 0.1 mm 4 mps 747 mmHg 65%
14:00 +18°C° 0.1 mm 4 mps 747 mmHg 66%
15:00 +18°C° 0 mm 4 mps 747 mmHg 64%
16:00 +18°C° 0 mm 4 mps 746 mmHg 63%
17:00 +19°C° 0 mm 4 mps 746 mmHg 61%
18:00 +18°C° 0 mm 3 mps 746 mmHg 68%
19:00 +16°C° 0 mm 2 mps 746 mmHg 75%
20:00 +15°C° 0 mm 2 mps 746 mmHg 82%
21:00 +14°C° 0 mm 2 mps 746 mmHg 85%
22:00 +13°C° 0 mm 2 mps 746 mmHg 89%
23:00 +13°C° 0 mm 2 mps 746 mmHg 92%

14 Julio, Martes

Tiempo Temperatura Precipitaciones Viento Presión Humedad
00:00 +12°C° 0 mm 2 mps 746 mmHg 93%
01:00 +12°C° 0 mm 2 mps 746 mmHg 95%
02:00 +12°C° 0 mm 2 mps 746 mmHg 96%
03:00 +12°C° 0 mm 2 mps 746 mmHg 96%
04:00 +10°C° 0 mm 2 mps 746 mmHg 97%
05:00 +10°C° 0 mm 2 mps 746 mmHg 97%
06:00 +12°C° 0 mm 3 mps 746 mmHg 92%
07:00 +14°C° 0 mm 3 mps 746 mmHg 86%
08:00 +16°C° 0 mm 3 mps 746 mmHg 81%
09:00 +18°C° 0 mm 3 mps 746 mmHg 75%
10:00 +19°C° 0 mm 3 mps 746 mmHg 70%
11:00 +20°C° 0 mm 3 mps 746 mmHg 64%
12:00 +21°C° 0.1 mm 3 mps 746 mmHg 63%
13:00 +21°C° 0.1 mm 3 mps 746 mmHg 62%
14:00 +22°C° 0.1 mm 3 mps 746 mmHg 61%
15:00 +21°C° 0.1 mm 3 mps 746 mmHg 62%
16:00 +21°C° 0.1 mm 3 mps 745 mmHg 63%
17:00 +21°C° 0.1 mm 3 mps 745 mmHg 64%
18:00 +20°C° 0 mm 2 mps 745 mmHg 70%
19:00 +18°C° 0 mm 2 mps 745 mmHg 77%
20:00 +17°C° 0 mm 2 mps 746 mmHg 83%
21:00 +16°C° 0 mm 2 mps 746 mmHg 86%
22:00 +15°C° 0 mm 1 mps 746 mmHg 89%
23:00 +14°C° 0 mm 1 mps 746 mmHg 92%

15 Julio, Miércoles

Tiempo Temperatura Precipitaciones Viento Presión Humedad
00:00 +14°C° 0 mm 1 mps 746 mmHg 92%
01:00 +13°C° 0 mm 1 mps 746 mmHg 93%
02:00 +13°C° 0 mm 1 mps 746 mmHg 94%
03:00 +13°C° 0 mm 1 mps 746 mmHg 94%
04:00 +13°C° 0 mm 1 mps 746 mmHg 94%
05:00 +12°C° 0 mm 1 mps 745 mmHg 94%
06:00 +14°C° 0 mm 1 mps 746 mmHg 88%
07:00 +16°C° 0 mm 1 mps 746 mmHg 82%
08:00 +17°C° 0 mm 0 mps 746 mmHg 76%
09:00 +19°C° 0 mm 0 mps 746 mmHg 70%
10:00 +20°C° 0 mm 0 mps 746 mmHg 64%
11:00 +22°C° 0 mm 0 mps 746 mmHg 58%
12:00 +24°C° 0.1 mm 1 mps 746 mmHg 57%
13:00 +24°C° 0.1 mm 1 mps 745 mmHg 56%
14:00 +24°C° 0.1 mm 1 mps 745 mmHg 54%
15:00 +24°C° 0 mm 1 mps 745 mmHg 54%
16:00 +24°C° 0 mm 1 mps 744 mmHg 54%
17:00 +24°C° 0 mm 1 mps 744 mmHg 54%
18:00 +23°C° 0 mm 1 mps 744 mmHg 61%
19:00 +21°C° 0 mm 1 mps 744 mmHg 67%
20:00 +19°C° 0 mm 1 mps 744 mmHg 73%
21:00 +19°C° 0 mm 1 mps 744 mmHg 74%
22:00 +18°C° 0 mm 1 mps 744 mmHg 75%
23:00 +16°C° 0 mm 1 mps 744 mmHg 76%

16 Julio, Jueves

Tiempo Temperatura Precipitaciones Viento Presión Humedad
00:00 +16°C° 0 mm 1 mps 744 mmHg 78%
01:00 +15°C° 0 mm 2 mps 743 mmHg 80%
02:00 +15°C° 0 mm 2 mps 743 mmHg 82%
03:00 +15°C° 0 mm 2 mps 743 mmHg 84%
04:00 +15°C° 0 mm 2 mps 742 mmHg 86%
05:00 +14°C° 0 mm 2 mps 742 mmHg 87%
06:00 +16°C° 0 mm 3 mps 742 mmHg 83%
07:00 +18°C° 0 mm 3 mps 742 mmHg 80%
08:00 +19°C° 0 mm 3 mps 742 mmHg 76%
09:00 +20°C° 0.4 mm 3 mps 742 mmHg 74%
10:00 +22°C° 0.4 mm 4 mps 741 mmHg 72%
11:00 +23°C° 0.4 mm 4 mps 741 mmHg 71%
12:00 +21°C° 0.9 mm 4 mps 741 mmHg 77%
13:00 +20°C° 0.9 mm 4 mps 741 mmHg 83%
14:00 +19°C° 0.9 mm 4 mps 740 mmHg 89%
15:00 +19°C° 0.1 mm 4 mps 740 mmHg 86%
16:00 +20°C° 0.1 mm 4 mps 740 mmHg 83%
17:00 +20°C° 0.1 mm 3 mps 740 mmHg 80%
18:00 +19°C° 0.1 mm 3 mps 740 mmHg 82%
19:00 +18°C° 0.1 mm 3 mps 740 mmHg 85%
20:00 +17°C° 0.1 mm 3 mps 740 mmHg 87%
21:00 +16°C° 0 mm 3 mps 741 mmHg 89%
22:00 +14°C° 0 mm 3 mps 741 mmHg 91%
23:00 +13°C° 0 mm 3 mps 741 mmHg 92%
Mostrar más